COSMOS 2251 DEB, 33912

Orbit data source: Space-Track

COSMOS 2251 DEB, 33912 is space debris in LEO originally from a launch on Wed, 16 Jun 1993 UTC launched from the Plesetsk Missile And Space Complex (PKMTR). The debris from Iridium 33, an American commercial communications satellite, has been tracked extensively since its accidental collision with the defunct Russian satellite Cosmos 2251 in 2009. This event, occurring at high speed in low Earth orbit (LEO), generated thousands of pieces of space debris, significantly increasing the risk of further collisions. The Iridium 33 debris cloud has impacted space traffic management and orbital debris mitigation strategies, making it a subject of ongoing study in space situational awareness.

Loading next visibility...
Identifier
33912, 1993-036DR
Orbit
LEO
Country
Flag of CISCIS
Related business
Manufacturer
Unknown
Mission
Spacecraft
Bus & Motor
Unknown
Mass
Unknown
Launch date (UTC)
1993-06-16 (33 years ago)
Launch vehicle
Unknown
Launch site
Plesetsk Missile And Space Complex (PKMTR)
Object type
Payload
Rocket body
Debris
Shape & HBR
Unknown shape, 0.1 m
Radar Cross Section
Small (<0.1 m²)

Expand to show TLE details & history
Last TLE update: 17 hours ago

TLE from 17 hours ago
0 COSMOS 2251 DEB
1 33912U 93036DR  26048.43571859  .00002927  00000-0  72448-3 0  9999
2 33912  74.0328  64.0333 0008564 139.0354 344.1823 14.52411095894010
Epoch: 2026-02-17T10:27Z
TLE epoch observation values (Epoch: 2026-02-17T10:27:26.086Z)
Latitude
53.67783°
Longitude
-83.01593°
Altitude
720.395 km
Speed
7.504 km/s
True Right ascension
14h 45m 02s
True Declination
53° 30' 46"
Sunlit
Object was in daylight at epoch
Visualization orbit readout
Latitude
Unknown
Longitude
Unknown
Altitude
Unknown
Speed
Unknown
Apparent Right ascension
Unknown
Apparent Declination
Unknown
Sunlit
N/A
Visualization observer readout
Local Sidereal Time
06:46:28
Azimuth
Unknown
Elevation
Unknown
Doppler factor
Unknown
Orbital elements
Apogee altitude
721.466 km
Perigee altitude
709.316 km
Semi-major axis
7,093.528 km
Eccentricity
0.00086
Inclination
74.0328°
RAAN
64.0333°
Arg. of periapsis
139.0354°
True anomaly
344.15552°
Mean anomaly
344.1823°
Eccentric anomaly
344.16891°
Mean motion
3.63287 °/min
Orbital period
99.1 mins
BSTAR
0.00072448

Documentation

Showing up to 5 results
|